Regional Weather Roundup
Issued by NWS Charleston, SC

Current Version | Previous Version | Graphics & Text | Print | Product List | Glossary On
Versions: 1 2 3 4 5 6 7 8 9 10 11 12 13 14 15 16 17 18 19 20 21 22 23 24 25 26 27 28 29 30 31 32 33 34 35 36 37 38 39 40 41 42 43 44 45 46 47 48 49 50
000
ASUS42 KCHS 051112
RWRCHS

REGIONAL WEATHER ROUNDUP
NATIONAL WEATHER SERVICE CHARLESTON SC
700 AM EDT SUN JUL 05 2015

NOTE: "FAIR" INDICATES FEW OR NO CLOUDS BELOW 12,000 FEET WITH NO
SIGNIFICANT WEATHER AND/OR OBSTRUCTIONS TO VISIBILITY.

NOT ALL STATIONS ARE QUALITY CONTROLLED BY THE NATIONAL
WEATHER SERVICE. USE DATA WITH CAUTION...ESPECIALLY
DEWPOINT OBSERVATIONS.

SCZ027-030-031-034>040-042>050-051200-
...SOUTHEAST SOUTH CAROLINA...

CITY           SKY/WX    TMP DP  RH WIND       PRES   REMARKS
N CHARLESTON   MOCLDY    74  71  91 SW6       30.14R
WATERFRONT PAR   N/A     77  74  91 VRB2      30.11R
MOUNT PLEASANT FAIR      75  73  94 SW5       30.14R
JOHNS ISLAND   FAIR      75  73  94 CALM      30.14R
PINOPOLIS      NOT AVBL
MONCKS CORNER  FAIR      72  70  94 CALM      30.13S FOG
SUMMERVILLE    FAIR      72  72 100 CALM      30.14R
BEAUFORT MCAS  PTCLDY    73  69  87 SW5       30.14R
BEAUFORT ARPT  FAIR      73  72  94 SW7       30.14R
HILTON HEAD IS PTCLDY    75  72  88 SW7       30.15R
WALTERBORO     MOSUNNY   70  68  94 SW6       30.14S
ALLENDALE      FAIR      70  70 100 CALM      30.13R

...SOUTHERN MIDLANDS AND PEE DEE...

CITY           SKY/WX    TMP DP  RH WIND       PRES   REMARKS
GEORGETOWN     NOT AVBL
KINGSTREE      NOT AVBL
ORANGEBURG     PTCLDY    70  68  93 S3        30.13R
BARNWELL       FAIR      72  72 100 S3        30.14R
AIKEN          NOT AVBL
MANNING        FAIR      70  70 100 CALM      30.13S
COLUMBIA       CLOUDY    73  69  87 S3        30.11R
SUMTER         PTCLDY    71  69  92 S3        30.11R
FLORENCE       CLEAR     72  69  90 SW3       30.12R
MYRTLE BEACH   CLOUDY    75  68  78 SW6       30.15R
N MYRTLE BEACH CLOUDY    76  69  79 SW8       30.13R

$$

GAZ063-065-086>088-099>101-113>116-118-119-134>141-150-051200-
...SOUTHEAST GEORGIA...

CITY           SKY/WX    TMP DP  RH WIND       PRES   REMARKS
SAVANNAH ARPT  PTCLDY    71  68  90 CALM      30.14R
HUNTER AAF     CLEAR     71  71 100 SW3       30.12R
FORT STEWART   CLEAR     72  69  91 VRB2      30.12R
STATESBORO     NOT AVBL
SYLVANIA       MOSUNNY   71  71 100 CALM      30.15R FOG
CLAXTON        FAIR      70  70 100 CALM      30.14R FOG

...CSRA...CENTRAL AND FAR SOUTHEAST GEORGIA...

CITY           SKY/WX    TMP DP  RH WIND       PRES   REMARKS
THOMSON        CLOUDY    74  73  99 CALM      30.16R
AUGUSTA-BUSH   CLOUDY    72  70  93 S5        30.11R
AUGUSTA-DANIEL CLOUDY    73  69  87 S5        30.13R
SWAINSBORO     FAIR     N/A N/A N/A CALM      30.15R
VIDALIA        CLEAR     70  70 100 CALM      30.14R
EASTMAN        FAIR      70  70 100 CALM      30.16R
HAZLEHURST     FAIR      72  72 100 CALM      30.13R
ALMA           CLEAR     70  69  97 S3        30.14R
WAYCROSS       CLEAR     73  73 100 CALM      30.15R
JESUP          FAIR      72  70  94 CALM      30.15R
BAXLEY         FAIR      72  70  94 CALM      30.14S
BRUNSWICK      CLEAR     70  68  94 CALM      30.16R
SAINT SIMONS   CLEAR     73  72  96 CALM      30.14R

$$

SCZ027-028-034-036>038-045-046-048>050-GAZ119-141-051200-
...LAKE AND SUPPLEMENTAL COASTAL OBSERVATIONS...

STATION/POSITION TIME  TEMP    WIND        PRES    WAVE   SWELL
                       AIR SEA DIR/SP/G            HT/PER HT/PER/DIR
                 (UTC) (F)     (DEG/KT/KT) (MB)    (FT/S) (FT/S/D)
UPR LAKE MARION  NOT AVBL
WINYAH BAY       0945   74     260/  3     1019.0
LAKE MURRAY      1000   75     220/  7/  9 1018.6R
ACE BASIN NERRS  NOT AVBL
FORT PULASKI     1000   74 84  240/  4/  5 1020.8R
SAPELO ISLAND    1000   74     190/  3     1020.0S

$$

ANZ835-935-AMZ111-154-330-350-352-354-370-450-454-472-051200-
...C-MAN AND BUOY OBSERVATIONS...

STATION/POSITION TIME  TEMP    WIND        PRES    WAVE   SWELL
                       AIR SEA DIR/SP/G            HT/PER HT/PER/DIR
                 (UTC) (F)     (DEG/KT/KT) (MB)    (FT/S) (FT/S/D)
BUOY 41004       1050   81 81  240/ 16/ 17 1019.9R   3/ 9   2/ 9
BUOY 41008       1050   78 79  220/  8/ 10 1020.9R   2/ 8   2/110/ 8
FOLLY BEACH CMAN 1000   77     260/  3/  4 1019.9R
CAPERS NEARSHORE 1008   81     260/ 12/ 14 1020.2R
FRIPP NEARSHORE  1000   81     250/ 14/ 16 1019.8R


STATION/POSITION TIME  TEMP    WIND        PRES    WAVE   SWELL
                       AIR SEA DIR/SP/G            HT/PER HT/PER/DIR
                 (UTC) (F)     (DEG/KT/KT) (MB)    (FT/S) (FT/S/D)
5E ST. MARYS GA  1021      77                N/A     2/ 8
FRYING PAN BUOY  1050   80 78  210/  8/ 10 1020.8R   3/ 5   3/180/ 5
BUOY 41025       1050   80 81  230/ 17/ 21 1019.4R   5/ 6   2/160/ 9
CAPE LOOKOUT NC  1000   79     240/ 10/ 13 1019.4R
BUOY 41002       1050   81 80  240/  6/  8 1022.6R   4/ 6   3/250/ 6
BUOY 41010       1020   82 84  150/ 16/ 17 1021.2R
ST AUGUSTINE FL  1100   73 72  180/  2/  3 1022.0R


$$


USA.gov is the U.S. government's official web portal to all federal, state and local government web resources and services.